EW2961 Weather Reports


time (UTC)temp
C
wind
direction
speed
KPH
gust
KPH
rain 1hr
cm
rain 24hr
cm
rain mn
cm
humidity
%
barometer
mb
20260510190217 17 4 1.6 16.1 0.00 0.00 0.00 76 1018.5
20260510184504 17 9 3.2 14.5 0.00 0.00 0.00 76 1019.2
20260510183003 17 12 3.2 14.5 0.00 0.00 0.00 78 1019.0
20260510181503 17 16 3.2 16.1 0.00 0.00 0.00 78 1018.2
20260510180004 16 10 4.8 17.7 0.00 0.00 0.00 80 1018.4
20260510174503 17 6 4.8 17.7 0.00 0.00 0.00 78 1018.3
20260510173218 17 11 3.2 19.3 0.00 0.00 0.00 76 1019.0
20260510171504 17 8 1.6 16.1 0.00 0.00 0.00 75 1018.9
20260510170003 18 19 3.2 14.5 0.00 0.00 0.00 77 1018.6
20260510164503 18 13 4.8 17.7 0.00 0.00 0.00 79 1018.1
20260510163003 18 17 1.6 12.9 0.00 0.00 0.00 82 1017.8
20260510161503 17 21 0.0 11.3 0.00 0.00 0.00 83 1017.3
20260510160003 17 27 1.6 9.7 0.00 0.00 0.00 83 1016.9
20260510154504 17 9 4.8 14.5 0.00 0.00 0.00 83 1016.5
20260510153003 17 13 1.6 16.1 0.00 0.00 0.00 82 1016.4
20260510151504 17 19 1.6 11.3 0.00 0.00 0.00 83 1016.0
20260510150003 17 22 1.6 11.3 0.00 0.00 0.00 84 1015.7
20260510144503 17 27 1.6 14.5 0.00 0.00 0.00 86 1015.6
20260510143004 17 32 0.0 4.8 0.00 0.00 0.00 88 1015.2
20260510141503 17 0 0.0 0.0 0.00 0.00 0.00 90 1015.7
20260510140004 17 32 0.0 4.8 0.00 0.00 0.00 90 1015.6
20260510134503 17 0 0.0 0.0 0.00 0.00 0.00 89 1015.7
20260510133003 17 0 0.0 0.0 0.00 0.00 0.00 88 1015.8
20260510131503 17 0 0.0 0.0 0.00 0.00 0.00 88 1015.8
20260510130003 17 0 0.0 0.0 0.00 0.00 0.00 88 1016.0
20260510124503 17 0 0.0 0.0 0.00 0.00 0.00 87 1015.1
20260510123003 17 0 0.0 0.0 0.00 0.00 0.00 88 1014.8
20260510121504 17 0 0.0 0.0 0.00 0.00 0.00 89 1014.1
20260510120003 16 0 0.0 0.0 0.00 0.00 0.00 88 1013.7
20260510114503 16 0 0.0 0.0 0.00 0.00 0.00 88 1013.5
20260510113003 16 0 0.0 0.0 0.00 0.00 0.00 85 1012.9
20260510111504 16 0 0.0 0.0 0.00 0.00 0.00 85 1012.7
20260510110004 17 0 0.0 0.0 0.00 0.00 0.00 84 1012.5
20260510104503 17 0 0.0 0.0 0.00 0.00 0.00 82 1012.3
20260510103004 17 0 0.0 0.0 0.00 0.00 0.00 82 1012.3
20260510101503 17 0 0.0 0.0 0.00 0.00 0.00 82 1012.0
20260510100004 17 32 0.0 3.2 0.00 0.00 0.00 81 1011.9
20260510094503 17 0 0.0 0.0 0.00 0.00 0.00 79 1011.9
20260510093003 18 0 0.0 0.0 0.00 0.00 0.00 77 1012.0
20260510091503 18 0 0.0 0.0 0.00 0.00 0.00 75 1011.9
20260510090003 18 0 0.0 0.0 0.00 0.00 0.00 74 1011.3
20260510084503 18 32 1.6 9.7 0.00 0.00 0.00 74 1010.8
20260510083003 19 33 0.0 1.6 0.00 0.00 0.00 73 1010.6
20260510081503 19 29 1.6 12.9 0.00 0.00 0.00 72 1010.0
20260510080219 19 123 0.0 3.2 0.00 0.00 0.00 72 1010.0
20260510074503 19 164 3.2 19.3 0.00 0.00 0.00 72 1008.1
20260510073003 20 164 4.8 14.5 0.00 0.00 0.00 72 1008.6
20260510071717 20 166 1.6 8.0 0.00 0.00 0.00 70 1010.9
20260510070003 20 167 4.8 17.7 0.00 0.00 0.00 67 1010.3
20260510064503 20 228 4.8 24.1 0.00 0.00 0.00 68 1012.1
20260510063003 20 0 0.0 0.0 0.00 0.00 0.00 70 1012.3
20260510061504 20 6 0.0 14.5 0.00 0.00 0.00 68 1012.0
20260510060218 20 0 0.0 0.0 0.00 0.00 0.00 71 1012.0
20260510054503 20 0 0.0 0.0 0.00 0.00 0.00 69 1012.7
20260510053003 20 0 0.0 0.0 0.00 0.00 0.00 68 1012.8
20260510051503 20 178 0.0 8.0 0.00 0.00 0.00 68 1012.7
20260510050003 20 0 0.0 0.0 0.00 0.00 0.00 71 1012.3
20260510044504 20 0 0.0 0.0 0.00 0.00 0.00 71 1011.6
20260510043004 20 0 0.0 0.0 0.00 0.00 0.00 69 1011.2
20260510041503 20 0 0.0 0.0 0.00 0.00 0.00 68 1010.9
20260510040217 20 0 0.0 0.0 0.00 0.00 0.00 67 1010.8
20260510034503 20 0 0.0 0.0 0.00 0.03 0.00 65 1010.5
20260510033004 20 0 0.0 0.0 0.00 0.03 0.00 64 1010.7
20260510031503 20 0 0.0 0.0 0.00 0.03 0.00 62 1010.7
20260510030217 21 0 0.0 0.0 0.00 0.03 0.00 60 1010.7
20260510024504 21 0 0.0 0.0 0.00 0.03 0.00 57 1010.4
20260510023217 21 0 0.0 0.0 0.00 0.03 0.00 56 1009.8
20260510021503 22 0 0.0 0.0 0.00 0.03 0.00 53 1009.1
20260510020004 22 0 0.0 0.0 0.00 0.03 0.00 52 1008.7
20260510014503 23 0 0.0 0.0 0.00 0.03 0.00 49 1008.4
20260510013003 24 0 0.0 0.0 0.00 0.03 0.00 46 1008.2
20260510011503 25 0 0.0 0.0 0.00 0.03 0.00 44 1008.1
20260510010004 25 0 0.0 0.0 0.00 0.03 0.00 43 1008.0
20260510004503 26 178 0.0 4.8 0.00 0.03 0.00 43 1007.9
20260510003004 26 178 1.6 4.8 0.00 0.05 0.00 44 1007.7
20260510001503 27 178 1.6 8.0 0.00 0.05 0.00 42 1007.7
20260510000004 28 128 1.6 9.7 0.00 0.51 0.00 40 1007.7
20260509234503 30 184 1.6 8.0 0.00 1.30 0.00 37 1007.8
20260509233003 30 185 1.6 9.7 0.00 1.65 0.00 35 1007.9
20260509231503 30 188 1.6 11.3 0.00 1.65 0.00 32 1008.0
20260509230003 31 143 3.2 9.7 0.00 1.65 0.00 31 1008.2
20260509224504 30 82 3.2 11.3 0.00 1.65 0.00 31 1008.2
20260509223003 31 121 3.2 9.7 0.00 1.65 0.00 34 1008.2
20260509221504 31 101 1.6 11.3 0.00 1.65 0.00 36 1008.3
20260509220217 31 122 1.6 6.4 0.00 1.65 0.00 33 1008.4
20260509214503 31 98 3.2 6.4 0.00 1.65 0.00 36 1008.4
20260509213003 31 113 3.2 9.7 0.00 1.65 0.00 38 1008.4
20260509211718 31 114 1.6 6.4 0.00 1.65 0.00 41 1008.6
20260509210004 31 143 1.6 6.4 0.00 1.65 0.00 37 1008.9
20260509204503 30 109 3.2 9.7 0.00 1.65 0.00 33 1009.1
20260509203004 31 122 3.2 8.0 0.00 1.65 0.00 38 1009.2
20260509201717 31 141 1.6 9.7 0.00 1.65 0.00 36 1009.3
20260509200003 31 154 1.6 9.7 0.00 1.65 0.00 37 1009.4
20260509194717 30 116 1.6 6.4 0.00 1.65 0.00 32 1009.6
20260509193003 30 84 0.0 4.8 0.00 1.65 0.00 38 1009.8
20260509191717 29 87 1.6 9.7 0.00 1.65 0.00 36 1009.9